Notices

What's New in latest Release from April 7th, 2021:

- Updated Glossary, including Speed of Maximum Gust, and Total Hourly Precipitation

- Updated national and regional climate services offices contacts and prices information

- Addition of station inventory lists for 1981-2010, 1971-2000, and 1961-1990 Normals.

If you haven't already, please take our survey and provide feedback about our website: https://eccc.sondage-survey.ca/f/LanguageSelection.aspx?s=442ca660-fcf1-47c0-95a9-59707d6fd709

Hourly Data Report for August 11, 2015

IQALUIT CLIMATE
NUNAVUT

63°44'50.000" N
68°32'40.000" W
33.50 m
2402592
71321
XFB

Download Data

Hourly Data (August 2015)
Hourly Data Report for August 11, 2015
TIME
LST
Temp Definition
°C
Dew Point Definition
°C
Rel Hum Definition
%
Precip. Amount Definition
mm

Wind Dir Definition
10's deg

Wind Spd Definition
km/h
Visibility Definition
km
Stn Press Definition
kPa
Hmdx Definition


Wind Chill Definition


Weather Definition


00:00 2.8 1.2 89 0.0 33 12   101.12     LegendNANA
01:00 2.1 0.5 89 0.0 34 11   101.17     LegendNANA
02:00 3.9 1.2 83 0.0 33 22   101.18     LegendNANA
03:00 4.5 1.2 79 0.0 34 30   101.18     LegendNANA
04:00 4.2 1.3 81 0.0 33 26   101.24     LegendNANA
05:00 3.8 1.1 83 0.0 33 25   101.28     LegendNANA
06:00 4.0 1.4 83 0.0 33 27   101.31     LegendNANA
07:00 4.8 1.6 80 0.0 33 27   101.31     LegendNANA
08:00 5.5 2.3 80 0.0 33 25   101.29     LegendNANA
09:00 6.2 2.2 75 0.0 32 24   101.30     LegendNANA
10:00 7.2 2.5 72 0.0 33 29   101.28     LegendNANA
11:00 8.3 2.8 68 0.0 33 26   101.27     LegendNANA
12:00 9.5 2.6 62 0.0 34 21   101.24     LegendNANA
13:00 10.7 2.1 55 0.0 34 22   101.19     LegendNANA
14:00 11.7 -0.7 42 0.0 32 23   101.16     LegendNANA
15:00 11.2 -0.1 45 0.0 32 25   101.13     LegendNANA
16:00 10.9 2.0 54 0.0 33 28   101.13     LegendNANA
17:00 10.3 2.7 59 0.0 34 27   101.16     LegendNANA
18:00 10.0 2.4 59 0.0 34 27   101.14     LegendNANA
19:00 9.7 2.8 62 0.0 32 17   101.16     LegendNANA
20:00 7.7 2.5 70 0.0 30 11   101.15     LegendNANA
21:00 7.8 2.3 68 0.0 31 15   101.18     LegendNANA
22:00 6.0 1.8 75 0.0 33 9   101.17     LegendNANA
23:00 5.1 1.6 78 0.0 30 8   101.18     LegendNANA

Notes on Data Quality.

Legend

  • E = Estimated
  • M = Missing
  • NA = Not Available*
  • [empty] = Indicates an unobserved value
Date modified: